• In India
  • List of Countries
  • For 7 days
  • Water Temperature
  • Satellite Maps
  • Weather Map
  • Weather Widgets
  • user-avatar
    Login

    Hourly Weather Spytkowice

    Today, 12 December, Wednesday

    Time Temperature Precipitation Wind Pressure Humidity
    00:00 0°C° 0.2 mm 1 mps 711 mmHg 94%
    01:00 -2°C° 0 mm 2 mps 711 mmHg 92%
    02:00 0°C° 0.3 mm 1 mps 711 mmHg 93%
    03:00 0°C° 0.3 mm 1 mps 711 mmHg 93%
    04:00 0°C° 0.3 mm 1 mps 712 mmHg 94%
    05:00 0°C° 0.1 mm 1 mps 712 mmHg 94%
    06:00 -1°C° 0.1 mm 1 mps 712 mmHg 94%
    07:00 -1°C° 0 mm 1 mps 713 mmHg 94%
    08:00 0°C° 0.1 mm 1 mps 713 mmHg 91%
    09:00 0°C° 0.1 mm 1 mps 713 mmHg 88%
    10:00 0°C° 0.1 mm 1 mps 714 mmHg 85%
    11:00 0°C° 0.1 mm 1 mps 714 mmHg 83%
    12:00 +1°C° 0.1 mm 1 mps 714 mmHg 81%
    13:00 +1°C° 0.1 mm 1 mps 714 mmHg 78%
    14:00 0°C° 0 mm 1 mps 715 mmHg 82%
    15:00 0°C° 0 mm 1 mps 715 mmHg 86%
    16:00 -1°C° 0 mm 1 mps 715 mmHg 90%
    17:00 -1°C° 0 mm 1 mps 715 mmHg 91%
    18:00 -2°C° 0 mm 1 mps 715 mmHg 93%
    19:00 -2°C° 0 mm 1 mps 716 mmHg 94%
    20:00 -2°C° 0 mm 1 mps 716 mmHg 94%
    21:00 -2°C° 0 mm 1 mps 716 mmHg 93%
    22:00 -2°C° 0 mm 1 mps 716 mmHg 93%
    23:00 -3°C° 0 mm 1 mps 716 mmHg 93%

    Tomorrow, 13 December, Thursday

    Time Temperature Precipitation Wind Pressure Humidity
    00:00 -3°C° 0 mm 1 mps 716 mmHg 94%
    01:00 -3°C° 0 mm 1 mps 716 mmHg 94%
    02:00 -3°C° 0 mm 1 mps 716 mmHg 93%
    03:00 -3°C° 0 mm 1 mps 716 mmHg 92%
    04:00 -3°C° 0 mm 1 mps 716 mmHg 92%
    05:00 -3°C° 0 mm 1 mps 716 mmHg 92%
    06:00 -3°C° 0 mm 1 mps 716 mmHg 92%
    07:00 -3°C° 0 mm 1 mps 716 mmHg 91%
    08:00 -2°C° 0 mm 1 mps 716 mmHg 89%
    09:00 -1°C° 0 mm 1 mps 716 mmHg 86%
    10:00 -1°C° 0 mm 1 mps 716 mmHg 84%
    11:00 0°C° 0 mm 1 mps 716 mmHg 82%
    12:00 0°C° 0 mm 1 mps 716 mmHg 80%
    13:00 0°C° 0 mm 1 mps 716 mmHg 78%
    14:00 0°C° 0 mm 1 mps 716 mmHg 82%
    15:00 -1°C° 0 mm 1 mps 716 mmHg 86%
    16:00 -1°C° 0 mm 1 mps 716 mmHg 89%
    17:00 -2°C° 0 mm 1 mps 716 mmHg 91%
    18:00 -2°C° 0 mm 1 mps 716 mmHg 92%
    19:00 -2°C° 0 mm 1 mps 716 mmHg 94%
    20:00 -2°C° 0 mm 1 mps 716 mmHg 94%
    21:00 -4°C° 0 mm 0 mps 716 mmHg 94%
    22:00 -4°C° 0 mm 0 mps 716 mmHg 94%
    23:00 -4°C° 0 mm 0 mps 717 mmHg 94%

    Day after tomorrow, 14 December, Friday

    Time Temperature Precipitation Wind Pressure Humidity
    00:00 -4°C° 0 mm 0 mps 717 mmHg 93%
    01:00 -4°C° 0 mm 0 mps 717 mmHg 93%
    02:00 -3°C° 0 mm 1 mps 717 mmHg 93%
    03:00 -4°C° 0 mm 1 mps 717 mmHg 93%
    04:00 -4°C° 0 mm 1 mps 717 mmHg 93%
    05:00 -4°C° 0 mm 1 mps 717 mmHg 92%
    06:00 -4°C° 0 mm 1 mps 717 mmHg 92%
    07:00 -4°C° 0 mm 1 mps 717 mmHg 92%
    08:00 -3°C° 0 mm 1 mps 717 mmHg 87%
    09:00 -3°C° 0 mm 1 mps 718 mmHg 83%
    10:00 -2°C° 0 mm 1 mps 718 mmHg 78%
    11:00 -1°C° 0 mm 1 mps 718 mmHg 75%
    12:00 -1°C° 0 mm 1 mps 718 mmHg 73%
    13:00 0°C° 0 mm 1 mps 718 mmHg 71%
    14:00 -1°C° 0 mm 1 mps 718 mmHg 76%
    15:00 -2°C° 0 mm 1 mps 718 mmHg 81%
    16:00 -3°C° 0 mm 1 mps 718 mmHg 86%
    17:00 -3°C° 0 mm 1 mps 718 mmHg 88%
    18:00 -4°C° 0 mm 1 mps 718 mmHg 89%
    19:00 -4°C° 0 mm 1 mps 718 mmHg 90%
    20:00 -4°C° 0 mm 1 mps 718 mmHg 92%
    21:00 -4°C° 0 mm 1 mps 718 mmHg 93%
    22:00 -4°C° 0 mm 1 mps 718 mmHg 94%
    23:00 -4°C° 0 mm 1 mps 718 mmHg 94%

    15 December, Saturday

    Time Temperature Precipitation Wind Pressure Humidity
    00:00 -4°C° 0 mm 1 mps 718 mmHg 94%
    01:00 -4°C° 0 mm 1 mps 718 mmHg 93%
    02:00 -6°C° 0 mm 2 mps 718 mmHg 93%
    03:00 -5°C° 0 mm 2 mps 717 mmHg 93%
    04:00 -5°C° 0 mm 2 mps 717 mmHg 93%
    05:00 -5°C° 0 mm 2 mps 717 mmHg 92%
    06:00 -5°C° 0 mm 2 mps 718 mmHg 91%
    07:00 -5°C° 0 mm 2 mps 718 mmHg 90%
    08:00 -5°C° 0 mm 3 mps 718 mmHg 87%
    09:00 -5°C° 0 mm 3 mps 718 mmHg 85%
    10:00 -4°C° 0 mm 3 mps 718 mmHg 83%
    11:00 -4°C° 0 mm 3 mps 718 mmHg 82%
    12:00 -4°C° 0 mm 3 mps 718 mmHg 81%
    13:00 -4°C° 0 mm 4 mps 718 mmHg 80%
    14:00 -4°C° 0.1 mm 3 mps 717 mmHg 82%
    15:00 -5°C° 0.1 mm 3 mps 717 mmHg 84%
    16:00 -5°C° 0.1 mm 3 mps 717 mmHg 86%
    17:00 -5°C° 0.2 mm 3 mps 717 mmHg 87%
    18:00 -5°C° 0.2 mm 3 mps 717 mmHg 88%
    19:00 -5°C° 0.2 mm 3 mps 717 mmHg 88%
    20:00 -5°C° 0.2 mm 3 mps 717 mmHg 89%
    21:00 -4°C° 0.2 mm 2 mps 717 mmHg 90%
    22:00 -4°C° 0.2 mm 2 mps 717 mmHg 91%
    23:00 -4°C° 0.2 mm 2 mps 717 mmHg 91%

    16 December, Sunday

    Time Temperature Precipitation Wind Pressure Humidity
    00:00 -4°C° 0.2 mm 2 mps 717 mmHg 92%
    01:00 -2°C° 0.2 mm 1 mps 717 mmHg 92%
    02:00 -2°C° 0.2 mm 1 mps 717 mmHg 93%
    03:00 -2°C° 0.2 mm 1 mps 716 mmHg 93%
    04:00 -3°C° 0.2 mm 0 mps 716 mmHg 93%
    05:00 -3°C° 0.1 mm 0 mps 716 mmHg 93%
    06:00 -2°C° 0.1 mm 1 mps 716 mmHg 93%
    07:00 -2°C° 0.1 mm 1 mps 716 mmHg 93%
    08:00 -1°C° 0 mm 1 mps 717 mmHg 91%
    09:00 0°C° 0 mm 1 mps 717 mmHg 88%
    10:00 +1°C° 0 mm 1 mps 717 mmHg 86%
    11:00 +1°C° 0 mm 1 mps 717 mmHg 85%
    12:00 +2°C° 0 mm 1 mps 717 mmHg 85%
    13:00 +3°C° 0 mm 1 mps 717 mmHg 84%
    14:00 +2°C° 0 mm 1 mps 716 mmHg 87%
    15:00 +1°C° 0 mm 1 mps 716 mmHg 90%
    16:00 -2°C° 0 mm 2 mps 716 mmHg 92%
    17:00 -2°C° 0 mm 2 mps 716 mmHg 92%
    18:00 -1°C° 0 mm 2 mps 716 mmHg 92%
    19:00 -1°C° 0 mm 2 mps 716 mmHg 92%
    20:00 -1°C° 0 mm 2 mps 716 mmHg 92%
    21:00 -1°C° 0 mm 2 mps 716 mmHg 91%
    22:00 -1°C° 0 mm 2 mps 716 mmHg 91%
    23:00 -1°C° 0 mm 2 mps 716 mmHg 90%

    17 December, Monday

    Time Temperature Precipitation Wind Pressure Humidity
    00:00 -1°C° 0 mm 2 mps 716 mmHg 90%
    01:00 +1°C° 0 mm 2 mps 715 mmHg 90%
    02:00 +1°C° 0 mm 2 mps 715 mmHg 90%
    03:00 +1°C° 0 mm 2 mps 715 mmHg 90%
    04:00 -1°C° 0 mm 2 mps 715 mmHg 90%
    05:00 +1°C° 0 mm 2 mps 715 mmHg 90%
    06:00 +1°C° 0 mm 2 mps 715 mmHg 90%
    07:00 +1°C° 0 mm 2 mps 715 mmHg 90%
    08:00 +2°C° 0 mm 1 mps 715 mmHg 89%
    09:00 +3°C° 0 mm 1 mps 715 mmHg 89%
    10:00 +3°C° 0 mm 1 mps 715 mmHg 88%
    11:00 +3°C° 0 mm 1 mps 715 mmHg 89%
    12:00 +3°C° 0 mm 1 mps 715 mmHg 89%
    13:00 +3°C° 0 mm 1 mps 715 mmHg 90%
    14:00 +3°C° 0.2 mm 1 mps 715 mmHg 91%
    15:00 +2°C° 0.2 mm 1 mps 715 mmHg 93%
    16:00 +2°C° 0.2 mm 1 mps 715 mmHg 94%
    17:00 +1°C° 0.1 mm 1 mps 715 mmHg 95%
    18:00 +1°C° 0.1 mm 1 mps 715 mmHg 96%
    19:00 +1°C° 0.1 mm 1 mps 716 mmHg 96%
    20:00 +1°C° 0.1 mm 1 mps 716 mmHg 96%
    21:00 +1°C° 0.1 mm 1 mps 716 mmHg 96%
    22:00 +1°C° 0.1 mm 1 mps 717 mmHg 96%
    23:00 0°C° 0 mm 1 mps 717 mmHg 96%
    Show more